Corto

POSIZIONEPETTORALECOGNOMENOMESESSOCATEGORIANOME TEAMTEMPOORA ARRIVODISTACCOMEDIA
1900FABIANALESSANDROMM35TRIATHLON00:26:1511:52:50.0500:00:0000:01:28
2753PAVANIMARCOMJMVERONA TRIATHLON KM SPORT00:26:2611:53:00.9500:00:1100:01:29
3698GIBERTONIMATTEOMM3500:26:2611:53:01.0500:00:1100:01:29
4748GRASSINILUCAMJMPRO PATRIA A.R.C.00:26:2711:53:01.7500:00:1200:01:29
5718CAPELLIMASSIMOMM46+NUOTO MASTER AIRONE00:27:1011:53:44.6000:00:5500:01:31
6690COGOMICHELAFJFSPORT MANAGEMENT00:27:2211:53:56.6000:01:0700:01:32
7777MONOLOFABIOMM46+NUOTATORI MILANESI00:27:4311:54:17.1500:01:2800:01:33
8620PERNECHELEMARCOMJMASD ALY SPORT00:28:0411:54:38.3500:01:4900:01:34
9765DISTEFANOSTEFANOMM46+A.S.D. RARI NANTES VENEZIA00:28:4411:55:18.4000:02:2900:01:36
10623MERLOVALERIAFF35GE.SPO.LE. S.S.DRL00:28:4611:55:20.6000:02:3100:01:36
11609BELLONISARAFF35DDS00:28:5911:55:33.1500:02:4400:01:37
12660BOLZONIGERMANOMM46+SPORTING CLUB VERONA00:29:0411:55:38.4000:02:4900:01:37
13778BATTAGLIAFEDERICOMJMVIGILI DEL FUOCO VOLONTARI00:29:0511:55:39.4500:02:5000:01:37
14632ANDREOLETTIPIETROMM3500:29:1311:55:47.5000:02:5800:01:38
15846COSTALARAFARAGNO RIVAROLESI00:29:1911:55:53.2000:03:0400:01:38
16683ALESSIABASLETTAFJF00:29:2211:55:56.2500:03:0700:01:38
17691CROCCOMATTIAMJMSPORT MANAGEMENT00:29:2211:55:57.0500:03:0700:01:38
18712BONIZZONIGRETAFF35NUOTATORI MILANESI00:29:3011:56:04.6500:03:1500:01:39
19747FIUMANOERIKAFF35NUOTATORI MILANESI00:29:3011:56:05.0000:03:1500:01:39
20656ROLIHLUCAMM4500:29:4011:56:14.8000:03:2500:01:39
21785PIOVANINICOLÒMM3500:29:4611:56:20.2000:03:3100:01:40
22833SACCONEALFREDOMM45NUOTO SERIATE00:29:4711:56:21.4000:03:3200:01:40
23717BORGHESANICINZIAFF45NUOTO MASTER AIRONE00:29:5211:56:26.8000:03:3700:01:40
24783PALUMBOCHIARAFF35FONDAZIONE BENTEGODI00:29:5711:56:31.5000:03:4200:01:40
25764COROMONICAFF46+SSD NATATORIUM TREVISO00:30:0311:56:38.0500:03:4800:01:41
26768VETRIOLIDIEGOMJM00:30:1111:56:45.5000:03:5600:01:41
27739ABBRACCIAVENTOLUCAMM35AQUAPOLIS00:30:1611:56:50.5500:04:0100:01:41
28672BARBERISSILVIAFF35SPORT MANAGEMENT00:30:2111:56:56.0500:04:0600:01:42
29722ROTAFEDERICOMJM00:30:5111:57:25.8500:04:3600:01:43
30610MORANDISTEFANOMM35DDS00:30:5311:57:27.1000:04:3700:01:43
31779OMATILUCAMM45FUTURA00:30:5411:57:28.9000:04:3900:01:43
32859SALAALBERTOMM3500:31:1111:57:45.6000:04:5600:01:44
33823BRAMBILLAMARCOMM3500:31:2211:57:56.6000:05:0700:01:45
34772ENFASIANDREAMM35NUOTO CLUB MILANO ASD00:31:3511:58:09.5500:05:2000:01:46
35661MONTERSINOMICHELEMM46+00:31:3711:58:11.4000:05:2200:01:46
36746FIORITOANDREA GIOVANNI ALESSANDROMM46+QSWIM SSD00:31:4611:58:20.6500:05:3100:01:46
37687VEZZOLIANNAFJF00:32:1611:58:50.7000:06:0100:01:48
38727GERMINIASIALESSANDROMM35CANOTTIERI MINCIO G.S. SSD ARL00:32:1811:58:52.5500:06:0300:01:48
39688VITALIMISIA ANGELAFJF00:32:1911:58:53.4000:06:0400:01:48
40800SILVANILORENZOMM46+LEAENA00:32:2011:58:54.5500:06:0500:01:48
41793BONOMIMAUROMM45MILLENNIUM SPORT & FITNESS00:32:2411:58:58.5500:06:0900:01:48
42780AGAZZANIDAVIDEMM35ASD OSTIGLIA NUOTO E TRIATHLON00:32:2711:59:01.3500:06:1200:01:49
43797STEFANINICAMILLAFJF00:32:4111:59:15.6000:06:2600:01:49
44624ZERBONIROSA PAOLAFF46+00:32:4611:59:20.6500:06:3100:01:50
45762ACETISILVIAFF45NUOTO CLUB BREBBIA00:33:0311:59:37.5000:06:4800:01:51
46790MAZZETTISIMONEMM45EFFETTO SPORT BARZANO00:33:0811:59:42.6000:06:5300:01:51
47817ROSSIDAVIDEMM3500:33:2311:59:57.7000:07:0800:01:52
48825DEDOLABARBARAFF46+LEAENA00:33:2411:59:58.3500:07:0900:01:52
49843MAZZALIMICHELEMJM00:33:2511:59:59.5500:07:1000:01:52
50723VATTIATASEBASTIANOMM46+00:33:3312:00:07.3000:07:1800:01:52
51861BARLETTAGIOVANNAFF46+00:33:3512:00:09.5000:07:2000:01:52
52625CAVAGNAALBERTOMM3500:33:3612:00:10.6500:07:2100:01:52
53775SALACLAUDIOMM4500:33:4112:00:15.3500:07:2600:01:53
54731DALL'AGNOLAALESSANDROMJM00:33:4512:00:19.9000:07:3000:01:53
55752NEGRIMARTINAFF35NUOTATORI MILANESI ASD00:33:4612:00:20.3500:07:3100:01:53
56830MARINELLIMATTEOMJMSPORT MANAGEMENT00:33:5012:00:24.1000:07:3400:01:53
57657ACERBITHOMASMM35NUOTATORI MILANESI00:33:5112:00:25.7500:07:3600:01:53
58776GAZZOLAGIOVANNIMM46+00:33:5112:00:25.8500:07:3600:01:53
59671ONOFRIMATTIAMM4500:33:5612:00:30.9500:07:4100:01:54
60700PITONEFEDERICOMM46+BZNM ACQUE LIBERE00:33:5812:00:32.4000:07:4300:01:54
61696TRIVELLONEPAOLOMM3500:34:0112:00:35.5500:07:4600:01:54
62819BRESCIANIPIETROMJM00:34:0412:00:39.0000:07:4900:01:54
63853LARREAMARICRUZFF45TEAMPRO00:34:1012:00:44.4000:07:5500:01:54
64675ANDREATAMBANIMM3500:34:1312:00:48.0000:07:5800:01:54
65615VENTURASTEFANOMM4500:34:1512:00:50.0500:08:0000:01:55
66822ANZANIANDREAMM3500:34:1612:00:50.4500:08:0100:01:55
67862PIANTONIMARIOMM46+00:34:1812:00:52.5000:08:0300:01:55
68815PIANTONIALBERTOMM3500:34:1912:00:53.5500:08:0400:01:55
69745DALLA PRIAGIULIAFF3500:34:2212:00:56.8000:08:0700:01:55
70838AZZOLINIALBERTOMM46+AMICI NUOTO RIVA SSD00:34:2312:00:57.8500:08:0800:01:55
71726BAROLIPAOLOMM46+ASD TAPATRIATHLON00:34:2512:00:59.7000:08:1000:01:55
72789OTTAVIANIALESSIOMM4500:34:2612:01:00.3000:08:1100:01:55
73782CORTINOVISJEAN MICHELMM46+00:34:2612:01:00.6500:08:1100:01:55
74811MACCHIMATTEOMM4500:34:2712:01:01.7500:08:1200:01:55
75707GANGIELVISMM45SPORTCLUB MERANO TRIATHLON00:34:3312:01:07.2500:08:1800:01:56
76791AMORICRISTINAFF45CANOTTIERI MINCIO00:34:3512:01:09.3000:08:2000:01:56
77828ZAPPLESTEPHANIEFF3500:34:3612:01:10.4500:08:2100:01:56
78646MAIERMARTINAFF3500:34:3712:01:12.0500:08:2200:01:56
79851GHIOTTOSONIAFF46+00:34:3912:01:13.1500:08:2400:01:56
80607MAINOENRICOMM46+00:34:3912:01:14.0000:08:2400:01:56
81743CAPUTOFRANCESCOMM46+00:34:4812:01:22.9500:08:3300:01:56
82794LEHNERIRIS VIKTORIAFF35C.S.S.00:34:5412:01:28.5500:08:3900:01:57
83807DALL'AGNOLAMARCOMM46+00:34:5512:01:29.1500:08:4000:01:57
84653RADAELLIELISAFF35TEAM LOMBARDIA00:35:1612:01:51.0000:09:0100:01:58
85749LUCCHIFRANCESCOMM35ASD OSTIGLIA NUOTO E TRIATHLON00:35:1912:01:53.8000:09:0400:01:58
86714STRAZZOLINISANDROMM46+00:35:3612:02:10.9000:09:2100:01:59
87649BONARDIPIERLUIGIMM4500:35:4312:02:17.6500:09:2800:01:59
88757BERETTASILVIAFF4500:36:0912:02:43.9500:09:5400:02:01
89684BOSELLICRISTINAFF46+00:36:1912:02:53.2500:10:0400:02:01
90855OTTAVIANIPAOLAFF46+NUOTO GIUNONE00:36:2512:02:59.9000:10:1000:02:02
91820FORESTIANTONIOMM46+00:36:2912:03:03.3000:10:1400:02:02
92802CAVICCHIOLIALESSIOMJM00:36:2912:03:03.9000:10:1400:02:02
93693LEVIANDREAMM4500:36:3012:03:04.3500:10:1500:02:02
94636LONGOSIMONAFF35ASD JUNIOR CLUB VIGEVANO00:36:3012:03:04.8500:10:1500:02:02
95670DAL PEZVALENTINAFF45ASD VIRIBUS UNITIS00:36:3112:03:05.1000:10:1500:02:02
96786ROSSIMASSIMOMM46+00:36:3112:03:05.7000:10:1600:02:02
97729BIELLAMATTEOMM4500:36:3412:03:08.4500:10:1900:02:02
98824CAVALMORETTIRITAFF45SETTEFRATI LIBERTAS MN 33 ASD00:36:4312:03:17.7000:10:2800:02:03
99605TROVARELLISILVANOMM46+00:36:4812:03:23.0000:10:3300:02:03
100799ROSSIERICAFF35CSS VERONA00:36:5312:03:27.9000:10:3800:02:03
101767LOVATOLUCAMM4500:36:5412:03:28.7500:10:3900:02:03
102805COMPRILUIGIMM46+00:37:0912:03:43.9000:10:5400:02:04
103766FRATUSROBERTAFF3500:37:1912:03:53.5000:11:0400:02:05
104680LUPO STANGHELLINIGIUSEPPEMM46+00:37:2512:03:59.2500:11:1000:02:05
105769VISINTAINERGUENTHERMM46+A.S.MERANO00:37:2712:04:02.0500:11:1200:02:05
106837GHELFIDANIELEMM4500:37:3812:04:13.0000:11:2300:02:06
107720PROVINPATRIZIAFF3500:37:4212:04:17.0500:11:2700:02:06
108716MOROBENEDETTAFF35LOM-00940000:37:4912:04:23.4500:11:3400:02:06
109831MINARIRICCARDOMJMSPORTMANAGEMENT00:37:5612:04:30.4000:11:4100:02:07
110650GORLANIRINALDOMM3500:38:0012:04:34.6500:11:4500:02:07
111736PIERESSALUCAMJM00:38:0312:04:37.5500:11:4800:02:07
112834BERGAMASCHIGIOVANNIMJMSPORT MANAGEMENT00:38:0712:04:41.4500:11:5200:02:07
113839MARINILORENZOMJM00:38:0812:04:42.1500:11:5300:02:07
114699BRAMBILLACESARE ALBERTOMPOLISPORTIVA LOSA00:38:1112:04:46.0500:11:5600:02:08
115771CATTAZZOCLAUDIOMM35A.S.D. VICENZA TRIATHLON00:38:1912:04:53.1000:12:0300:02:08
116857PICCOLBONIMATTIAMJMTEAM SPORT ISOLA00:38:3212:05:06.4000:12:1700:02:09
117760MANDRUZZATOLAURA-ELENAFF4500:38:3312:05:07.7500:12:1800:02:09
118812MANDELLIFABIOMM46+ROAD RUNNER00:38:3812:05:13.0000:12:2300:02:09
119759LOBIANCOALESSANDROMM4500:38:3912:05:13.7000:12:2400:02:09
120676DELLE ROSEANDREA GIACOMOMM46+TRIMTRIATHOL BAREGGIO00:38:4612:05:21.0000:12:3100:02:10
121673POLETTISOFIA GIOVANNAFF46+SPORT MANAGEMENT00:38:4812:05:22.1500:12:3300:02:10
122630MAESTRIALESSANDRAFF46+00:38:5612:05:30.1000:12:4000:02:10
123842DOSSIFRANCESCAFJFCANOTTIERI MILANO ASD00:39:0312:05:37.1000:12:4700:02:11
124795PAGANILUNAFF3500:39:0412:05:38.1500:12:4900:02:11
125703ARCARIMICHELAFF46+AQUATIC CENTER SSD00:39:1012:05:44.1500:12:5500:02:11
126614DAGLIAROBERTAFF4500:39:2612:06:00.9500:13:1100:02:12
127665INCERTIPAOLOMM46+SAN DONNINO SPORT00:39:3212:06:06.1500:13:1700:02:12
128860VEZZOLIMARIANNAFF4500:39:3312:06:07.7000:13:1800:02:12
129821PARISE'MANUELMM4500:39:4112:06:15.1000:13:2500:02:13
130809GRISOLIAANTONIOMM46+00:39:4112:06:15.1500:13:2600:02:13
131773GASPERINIKATJAFF4500:39:4312:06:18.0500:13:2800:02:13
132755TOMEZZOLIFRANCESCOMJM00:39:4512:06:19.4000:13:3000:02:13
133744CORDIOLIALESSANDROMJM00:39:4612:06:20.1000:13:3000:02:13
134629GIULIANIMARCOMM46+00:39:5012:06:24.2000:13:3500:02:13
135706ARATRIBRUNOMM46+00:39:5012:06:24.9000:13:3500:02:13
136628BINDAARTUROMM46+00:39:5612:06:30.8000:13:4100:02:14
137692BOFFIGIANFRANCOMM46+00:40:0812:06:42.3500:13:5300:02:14
138635DE SARIOMAUROMM3500:40:0912:06:43.3000:13:5400:02:14
139840ZANETTIELENAFF45FUMANE TRIATHLON ASD00:40:1012:06:44.7000:13:5500:02:14
140733FERRILUCAMM46+POLISPORTIVA GALILEO00:40:1612:06:51.0000:14:0100:02:15
141836COCOGIUSEPPEMM4500:40:2912:07:04.0000:14:1400:02:15
142603BOLDRINUMBERTOMM4500:40:4812:07:22.1500:14:3300:02:16
143738STEFANOBOAROTTOMM35TEAM SPORT ISOLA00:41:0412:07:38.3000:14:4900:02:17
144792BELLINGERISIMONEMM46+CAN LEONIDA BISSOLATI AS DILETT.00:41:1112:07:45.7000:14:5600:02:18
145734FERROVALENTINAFJF00:41:1312:07:47.9500:14:5800:02:18
146668OGNIBENEANDREAMM46+SAN DONNINO SPORT00:41:1612:07:50.8000:15:0100:02:18
147626QUARANTINIANDREAMM46+00:41:3212:08:07.0000:15:1700:02:19
148663GHIBERTIGABRIELEMM4500:41:3912:08:13.1000:15:2300:02:19
149685CARLICRISTINAFF4500:41:4012:08:14.1500:15:2500:02:19
150756VERZOLALEONARDOMM4500:41:4212:08:16.8000:15:2700:02:19
151781COLTAMARIOMJM00:41:4812:08:22.3500:15:3300:02:20
152832PAROLETTIMIRELLAFF46+MILLENIUM SPORT & FITNESS00:41:5412:08:28.1000:15:3800:02:20
153826LONGHIPIERANGELOMM46+MILLENIUM SPORT & FITNESS00:41:5512:08:29.7000:15:4000:02:20
154627DELFINICESAREMM46+SPORT MANAGEMENT00:41:5712:08:31.7000:15:4200:02:20
155631VICARIOFABIOMM4500:41:5812:08:32.2000:15:4300:02:20
156852GIUDICILUCA DANTEMM35SNEF ERBA00:42:2312:08:57.2500:16:0800:02:22
157808GRILLILUCIANOMM46+00:42:2912:09:03.3500:16:1400:02:22
158721ROMANINELISAFF35SSV LEIFERS A.S.V.00:42:3412:09:09.0000:16:1900:02:22
159803CINQUINIMARIAFF46+00:42:4812:09:22.7500:16:3300:02:23
160813PAGANISARAFF3500:42:4912:09:23.3500:16:3400:02:23
161814PATINIMAUROMM46+00:42:5312:09:27.2000:16:3800:02:23
162774JIMENEZ PAZCARLOTAFF46+00:43:0212:09:36.9500:16:4700:02:24
163850FUSETTIVALENTINAFF35SPORTING CLUB 63 S.S.DILETT.ARL00:43:0812:09:42.4500:16:5300:02:24
164701ROSSISTEFANOMM46+00:43:1712:09:51.2500:17:0200:02:25
165679LINGUARISTEFANOMM46+00:43:2312:09:57.7500:17:0800:02:25
166715BRUNELLISTEFANOMM4500:43:3612:10:10.1500:17:2100:02:26
167849FELICIANIROBERTAFF46+00:43:3712:10:11.6500:17:2200:02:26
168606ANANINAEVGENIIAFF3500:43:3812:10:12.5000:17:2300:02:26
169829DIGGES LA TOUCHENICOLAFF46+I DISERTORI00:43:4112:10:15.8000:17:2600:02:26
170724ZANARDELLIVITTORIO ROSSANOMM4500:43:4312:10:17.9000:17:2800:02:26
171662DERETTIALESSANDRAFJF00:43:4712:10:21.4500:17:3200:02:26
172655FRANCESCHIMASSIMOMM46+00:43:4912:10:23.3000:17:3400:02:26
173750MANDELLIGIORGIOMM46+TRIATHLON BERGAMO00:43:5512:10:29.1500:17:4000:02:27
174667MAFFINIMANERMM3500:43:5512:10:29.8000:17:4000:02:27
175604BOLLINISERGIOMM46+00:44:2812:11:03.0500:18:1300:02:29
176761TRENTINSAVERIOMM45ASD PASTIGLIA NUOTO E TRIATHLON00:44:3112:11:05.5500:18:1600:02:29
177806COZZIVALERIAFF46+ROAD RUNNER00:44:3712:11:11.5000:18:2200:02:29
178730CAPUTOANNAFF46+00:44:4012:11:14.9500:18:2500:02:29
179710GAMBARELLIRITAFF46+00:44:5312:11:28.0000:18:3800:02:30
180694LONGONIDANIELAFF46+00:45:4012:12:14.5000:19:2500:02:33
181681STROPPAMARCOMM4500:45:5412:12:28.3500:19:3900:02:33
182844PRESEGLIOMASSIMOMM46+TEAM BIKE GUSSAGO00:45:5712:12:31.7000:19:4200:02:34
183732FACCIOLIDEBORAFF35TEAM SPORT ISOLA00:46:2512:12:59.5500:20:1000:02:35
184804COLLARINMAURIZIOMM46+00:46:3412:13:08.6000:20:1900:02:36
185735LIMAUROBARBARAFF45SPORT MANAGEMENT00:46:4112:13:15.6000:20:2600:02:36
186751MAURINANNA LAURAFF46+00:46:4412:13:18.5000:20:2900:02:36
187648MONZARDOGIORGIAFJF00:47:1212:13:46.6500:20:5700:02:38
188719MARCHIOTTOWALTERMM46+ASD MERANO NUOTO00:47:2812:14:02.8500:21:1300:02:39
189677DI MARTINOGAIAFF3500:47:3112:14:05.2500:21:1600:02:39
190695PETRETTIBIANCAFF4500:47:3512:14:09.4000:21:2000:02:39
191682VAILATI FACCHINISILVIAFJF00:47:3912:14:13.7000:21:2400:02:39
192827NIRCHIOANTONIETTAFF46+CILO SRL SSD00:47:5212:14:26.9000:21:3700:02:40
193787SBRUZZIALESSANDROMM4500:48:1212:14:46.5500:21:5700:02:41
194666IORIRAFFAELEMM46+00:48:3412:15:08.6500:22:1900:02:42
195601ZHESTOVSKAYAKSENIYAFF3500:48:3512:15:09.2000:22:2000:02:42
196818ZUCCAILARIAFF3500:48:5512:15:29.2500:22:4000:02:43
197740BRUCOLIMATTEOMM4500:48:5812:15:32.1500:22:4300:02:44
198788TARNAVSKAIANATALIAFF4500:48:5912:15:33.1000:22:4300:02:44
199697TUNESINICOLA GIOVANNIMM46+00:49:0012:15:34.5500:22:4500:02:44
200801ATTINA'STEFANOMM46+00:49:0812:15:42.4000:22:5300:02:44
201613VOGHIPAOLAFF46+00:49:3512:16:09.2000:23:2000:02:46
202835BERLOFFAKATIAFF4533TRENTINI00:49:3812:16:12.4000:23:2300:02:46
203708SIMEONEDARIOMM4500:49:5512:16:29.4000:23:4000:02:47
204686MUSSOMARCOMM46+00:49:5612:16:30.7000:23:4100:02:47
205754PLIZZARIANNA MARIAFF46+00:50:0812:16:42.2000:23:5300:02:47
206619MURATORESERGIOMM46+00:50:1412:16:48.2500:23:5900:02:48
207845RICCIMATTEOMM46+00:50:3712:17:11.6000:24:2200:02:49
208770BOTTICELLICLAUDIOMM4500:50:5412:17:28.4000:24:3900:02:50
209841BIANCOPAOLAFF45ASD NUOTO GIUNIONE00:51:2312:17:57.8000:25:0800:02:52
210810LEONARDIALESSANDRAFF4500:51:3012:18:04.1000:25:1400:02:52
211713GIOVANNINIPIER LUIGIMM46+00:52:1612:18:50.1000:26:0000:02:55
212618FOMINAMARIAFF4500:53:2512:19:59.1500:27:1000:02:58
213848FAEDDACARLOMM45NJOY TRIATHLON VARESE00:54:0712:20:41.9500:27:5200:03:01
214858ROSSETTISOFIAFF35NJOY TRIATHLON VARESE00:54:0812:20:42.2500:27:5300:03:01
215741MICHELONDAVIDEMM46+00:54:2412:20:58.8500:28:0900:03:02
216658BALLABIOPATRIZIAFF46+00:55:2012:21:54.6500:29:0500:03:05
217678FUSAR IMPERATOREPAOLAFF46+00:56:5112:23:25.8000:30:3600:03:10
218702SALETTIDANIELAFF46+01:00:1512:26:49.4000:34:0000:03:21
219616ANDREEVAELENAFF46+01:06:5812:33:32.3500:40:4300:03:44
220763BRANDUZZIDARIOMM45MODENA TRIATHLON01:09:3512:36:09.7500:43:2000:03:52

Lungo

POSIZIONEPETTORALECOGNOMENOMESESSOCATEGORIASOCIETÀTEMPOORA ARRIVODISTACCOMEDIA
1445BONFADINIARNALDOMM35SEVENUPSWIMMERS00:39:0111:45:04.8000:00:0000:01:14
285AMBROGGIOMARIOMJMICE CLUB COMO00:39:2611:39:13.8500:00:2500:01:14
3462FURLANMATTEOMM35MARINA MILITARE TEAM VENETO00:40:0211:39:49.5000:01:0100:01:15
4295CALEFFIDAVIDEMM35C.C. ANIENE00:41:1111:47:15.0000:02:1100:01:18
5255NARDOMARCOMM35C.S.R. GRANDA00:41:3111:47:34.7500:02:3000:01:18
6307FANTINIFILIPPOMJMSWIM PRO SS900:41:4411:47:47.1500:02:4300:01:19
7448DONSEBASTIANOMM35CANOTTIERI GARDA SALÒ ASD00:41:5311:47:56.7000:02:5200:01:19
8111LUPOLORENZOMJM00:42:0111:41:48.1500:03:0000:01:19
9338MAROLLAANDREAMM35CUS TRENTO CTT00:42:0111:48:04.5500:03:0000:01:19
10230ZUCCHETTILEONARDOMJMSPORT TIME S.S.D.00:42:1111:41:58.5500:03:1000:01:19
11227CIPANIMATTEOMM3500:42:1611:42:03.3000:03:1500:01:20
12214VIGANÒCAMILLAFJFSSD EFFETTO SPORT ARL00:42:1911:42:06.7000:03:1800:01:20
13183BETTINAZZIMORENOMM45ACQUATIC CENTER MONTICHIARI00:42:2611:42:13.8000:03:2500:01:20
14416MARIANIGIORGIOMJM00:43:0311:49:06.4000:04:0200:01:21
15481REBONATOGABRIELEMM45PADOVA NUOTO TRIATHLON00:43:0311:49:06.4500:04:0200:01:21
16359BORDONALIBERNARDOMM46+TEAM MS00:43:1011:49:13.1500:04:0900:01:21
17103FORNARIMASSIMOMM45FIRENZE NUOTA MASTER A.S.00:44:2311:44:10.8500:05:2200:01:24
18332SOLIANIENRICOMM46+PALLANUOTO MILANO00:44:2611:50:29.4000:05:2500:01:24
19273PAPETTILUCAMM3500:44:2711:50:30.1000:05:2600:01:24
2030MAZZAELISAFJFICE CLUB COMO00:44:2811:44:15.7500:05:2700:01:24
21223MEDICOGABRIELEMM35NUOTATORI MILANESI00:44:2811:44:16.0500:05:2800:01:24
22185BLONNADAVIDEMM4500:44:4911:44:36.9000:05:4900:01:24
23162MANESSIALBERTOMM45ASD NUOTO MASTER BRESCIA00:44:5311:44:40.4500:05:5200:01:25
2498GUERRATOMATTEOMM46+00:45:1611:45:03.1500:06:1500:01:25
25419PADOANFRANCESCOMJMFREE TIME00:45:3211:51:35.4500:06:3100:01:26
26421RAVASCHIOELENAFJFARAGNO RIVAROLESI00:45:4011:51:44.0000:06:4000:01:26
27428BATTISTELLAANNAFJFTEAM SPORT ISOLA00:45:4411:51:48.0000:06:4400:01:26
28259BETELLAANTONIOMJM00:45:4611:51:49.9500:06:4600:01:26
29287BOVIMARCOMM46+ASD NUOTO GIUNONE00:45:5111:51:54.7000:06:5000:01:26
30330GIAVARDIANDREAMM45CANOTTIERI BISSOLATI00:45:5811:52:01.5000:06:5700:01:27
31409BOVETOMMASOMJMARAGNO RIVAROLESI00:46:2811:52:31.9000:07:2800:01:28
32193SACCHIMARCOMM45MS00:46:3511:46:22.8000:07:3400:01:28
33288PASQUALILUCAMM46+00:46:5211:52:55.4500:07:5100:01:28
34161GORLACLAUDIOMM46+SPORTING LODI00:47:0711:46:54.5000:08:0600:01:29
35469BESTETTISIMONEMM3500:47:1411:53:17.4000:08:1300:01:29
36249TESTAJACOPOMJMLOM-04457000:47:1911:47:06.6000:08:1800:01:29
37375MARTINELLIROBERTOMM46+TEAM MS00:47:3911:53:42.6500:08:3800:01:30
38219ROSSOALESSANDROMM45MS00:47:4011:47:27.7000:08:3900:01:30
39370GIBERTONIPAOLOMM46+TEAM MS00:47:4111:53:44.3000:08:4000:01:30
40447CITTERIOUMBERTOMJM00:47:5911:54:02.9500:08:5900:01:30
41422RAVASCHIOIRENEFJFARAGNO RIVAROLESI00:48:0911:54:12.7000:09:0800:01:31
4273GUARNERIMARCOMM46+3724100:48:5011:48:37.2500:09:4900:01:32
43401COLAPINTOSTEFANOMM46+CILO SRL SSD00:48:5011:54:53.7000:09:4900:01:32
44209FEDERICIANDREAMM45NUOTO MASTER AIRONE00:48:5811:48:45.6000:09:5700:01:32
45190MONOLORICCARDOMM45CILO MASTERTEAM SSD00:49:0011:48:47.3000:09:5900:01:32
46153CARSANALUCAMM46+00:49:0711:48:54.3000:10:0600:01:32
47217FESTAANDREAMJM00:49:0811:48:55.8500:10:0700:01:33
48228SPREAFICONICOLAMM46+NUOTATORI DEL CARROCCIO00:49:1211:48:59.7000:10:1100:01:33
49347GHIDETTIALBERTOMM3500:49:1411:55:17.2500:10:1300:01:33
50166GALLIANTONIOMM46+00:49:1611:49:03.3000:10:1500:01:33
51244PAGANIVANESSAFJFSPORT TIME00:49:1711:49:04.8000:10:1600:01:33
52397PUDDUFRANCESCOMM45ASD GRUPPO IN FORMA00:49:1711:55:20.8000:10:1600:01:33
53157MUSNERSIMONEMM45BZNM ACQUE LIBERE00:49:1811:49:05.4000:10:1700:01:33
54245PELLEGRINOTOMMASOMM4500:49:1811:49:05.4000:10:1700:01:33
5589INVERNIZZILUCAMM45BFIT00:49:2011:49:07.9000:10:2000:01:33
56484VIGLIETTIPAOLOMM46+CILO SRL SSD00:49:2211:55:25.1000:10:2100:01:33
57211GAMBARINIMATTEOMM3500:49:2211:49:10.0500:10:2200:01:33
58388GANDELLINIMIRELLAFF46+CILOMASTERTEAM00:49:2311:55:26.3500:10:2200:01:33
59182BERTAIOLAANDREAMM45NUOTO MASTER PESCHIERA D/G00:49:2311:49:10.4500:10:2200:01:33
60290CANTINAMAUROMM46+VIMERCATE NUOTO00:49:3411:55:37.5000:10:3300:01:33
61300GALLIPAOLOMM45VIMERCATE NUOTO00:49:3511:55:38.5000:10:3400:01:33
62407TABELLINICRISTIANMM4500:49:3611:55:39.2500:10:3500:01:33
6360BRUGALISIMONEMM46+STEEL TRIATHLON00:49:3611:49:23.3500:10:3500:01:33
643AMAGLIOANDREAMM4500:49:3811:49:25.5000:10:3700:01:33
6557GUARNERIGRETAFJFLOM-09418100:49:3911:49:26.2000:10:3800:01:33
66284GUIDIDANIELEMM45AICS PAVIA00:49:4211:55:45.7500:10:4100:01:34
67177FANTONLORISMM46+ASI TRIATHLON NOALE00:49:4511:49:33.0000:10:4500:01:34
68442ROBERTIENRICOMM45GIUNONE00:49:4711:55:51.0500:10:4700:01:34
69158PASOTTIGIORGIOMM46+SPAZIO NUOTO00:49:5011:49:37.1000:10:4900:01:34
70368FORNIZMASSIMOMM45REACTION00:49:5211:55:55.4500:10:5100:01:34
71480RAVANELLORICCARDOMJMARAGNO RIVAROLESI00:50:0311:56:06.4000:11:0200:01:34
72293BONIMARCOMM46+RARI NANTES SPEZIA00:50:0311:56:06.5000:11:0200:01:34
73363COLLEONIALBERTOMM4500:50:0711:56:10.1500:11:0600:01:34
74379PALACHIARAFJFCOOPERNUOTO00:50:1011:56:13.9000:11:1000:01:34
75373LOMBARDINICOLAMM4500:50:1211:56:16.0000:11:1200:01:35
76457GALBALLY HERREROJAVIERMM4500:50:1411:56:17.8500:11:1300:01:35
77427BAIONICOLAMM45AQUAREA00:50:1511:56:18.2500:11:1400:01:35
78282PIZZIOLOALICEFJFASD TEAM SPARTANS00:50:1711:56:20.9000:11:1700:01:35
79299FUMEROROBERTOMM46+00:50:1911:56:22.6500:11:1800:01:35
80475MARZOTTOANNAFF352001 PADOVA00:50:2111:56:24.9000:11:2100:01:35
81436GIUZZIANDREAMM46+AQUATIC CENTER SSD00:50:2611:56:29.3500:11:2500:01:35
82454ORLANDIMARCOMM4500:50:2611:56:29.7000:11:2500:01:35
83408BENETTIRICCARDOMM35AQUAREA VICENZA00:50:2911:56:32.4500:11:2800:01:35
84298BECCHISBEATRICEFJF00:50:2911:56:32.5500:11:2800:01:35
85382VISCHICRISTINAFF46+MILLENIUM00:50:3311:56:37.0500:11:3300:01:35
86220BULBARELLIRENZOMM46+OASI BOSCHETTO00:50:3411:50:21.8500:11:3300:01:35
87377MILANESIDANIELEMM46+FIRENZE NUOTA MASTER A.S.DILETT.00:50:3511:56:38.6000:11:3400:01:35
88404LEOALESSIOMM45PADOVANUOTO TRIATHLON00:50:3711:56:40.3000:11:3600:01:35
89138FUMAGALLIANDREAMM45VIMERCATE NUOTO00:50:3811:50:25.7000:11:3700:01:35
90364COLLEONIANTONELLOMM46+00:50:3911:56:42.6500:11:3800:01:35
9151VERGANIROBERTOMM45EFFETTO SPORT00:50:4011:50:27.7500:11:3900:01:35
9243MESSORIANTONIOMM46+BERIV00:50:4111:50:28.3500:11:4000:01:35
93313CORIOLUCAMM45FUTURA00:50:4311:56:47.0000:11:4300:01:35
94322RAFFASALVATOREMM45FREE TIME00:50:4511:56:48.1500:11:4400:01:36
95488MENASSILUCAMM3500:50:5111:56:54.8500:11:5000:01:36
9622WARNATSTEFANMM46+00:50:5111:50:39.0500:11:5100:01:36
97464ROMANOGIUSEPPEMM46+NLF00:51:0411:57:07.6000:12:0300:01:36
98470BRUGNOLIBARBARAFJF2001 PADOVA00:51:2111:57:24.9500:12:2100:01:37
99371GRITTIROBERTOMM4500:51:4811:57:51.5500:12:4700:01:38
100204VECCHISOFIAFJF00:51:5911:51:46.8500:12:5800:01:38
101423RINIERIGIULIAFF45MODENA TRIATHLON00:52:0011:58:03.6000:12:5900:01:38
102376MESSIROBERTOMM46+SPORT MANAGEMENT00:52:0411:58:07.5000:13:0300:01:38
10371FUMAGALLIMATTEOMM4500:52:0811:51:55.9500:13:0800:01:38
104206ABBIATICIGABRIELEMJM00:52:0911:51:56.8500:13:0800:01:38
105229VIANIMIRKOMM46+OASI BOSCHETTO00:52:1311:52:00.3500:13:1200:01:38
106248SANTAMARIAMANUELMM45TEAM SPORT ISOLA00:52:1811:52:05.7500:13:1700:01:38
107222MARIANIMARCELLOMM46+CANOTTIERI MILANO00:52:2111:52:08.6500:13:2000:01:39
108239GALLOANDREAMM46+TEAM SPORT ISOLA00:52:2411:52:11.3000:13:2300:01:39
109169MILOTTAGIUSEPPEMM46+RARI NANTES LEGNANO00:52:2511:52:12.4500:13:2400:01:39
110349SAVOLDELLIVALERIAFF3500:52:2811:58:31.5500:13:2700:01:39
111116BOZZINIGABRIELEMM4500:52:2811:52:16.0000:13:2800:01:39
112180SANTOROGIUSEPPEMM46+AQUATIC CENTER SSD MONTICHIARI00:52:3611:52:23.7500:13:3500:01:39
11348CONTARDIEFREMMM46+00:52:3911:52:26.5000:13:3800:01:39
11455PIACENTINISIMONEMM45SPORTING LODI SS.DILETT00:52:3911:52:26.5500:13:3800:01:39
115108TRECCANIUMBERTOMM3500:52:4011:52:27.1500:13:3900:01:39
116250ZANONIENRICOMM35TEAM SPORT ISOLA00:52:4111:52:28.5500:13:4000:01:39
11737CASINIMARCOMM46+SPORT MANAGEMENT00:52:4311:52:30.8000:13:4200:01:39
11883COSTANTINICARLOMM46+BARZANO' ACQUACLUB00:52:4311:52:30.9500:13:4300:01:39
119242MANARAROBERTOMM46+TEAM SPORT ISOLA00:52:4611:52:33.6000:13:4500:01:39
12074LIVIERIEMANUELEMM45ASD PAVANELLO00:52:4611:52:33.7500:13:4500:01:39
121235DI BARTOLOGIANLUCAMM46+00:52:4711:52:34.5500:13:4600:01:39
122144SELLERIRITAFF46+00:52:4911:52:36.2000:13:4800:01:39
12321FERRIFABRIZIOMM46+00:52:4911:52:36.4500:13:4800:01:39
124110ZIZOLAFEDERICOMM35ATLANTIC SPORT00:52:5011:52:37.5500:13:4900:01:39
12510SONDERMANNAXELMM46+00:52:5611:52:43.3500:13:5500:01:40
126372LOCATIANDREAMM46+TEAM MS00:52:5711:59:01.0500:13:5700:01:40
127260BORDEGARIGIANANTONIOMM46+SPAZIO SPORT ONE SSD ARL00:53:0111:59:04.4000:14:0000:01:40
128315FERRARIGIOVANNIMM3500:53:0211:59:05.2000:14:0100:01:40
129361CATTANEOMATTEOMM45TEAM MS00:53:0711:59:10.4000:14:0600:01:40
130238FILIPPINIENRICOMM35TEAM SPORT ISOLA00:53:1111:52:58.3000:14:1000:01:40
131181BAGNOLIDAVIDEMM46+ASD TEAM SPARTANS00:53:1111:52:58.5000:14:1000:01:40
13216TANTIKATERINAFF4500:53:2011:53:07.2000:14:1900:01:40
133467CARICATIEMANUELEMM3500:53:2711:59:30.8000:14:2600:01:41
134297VACCARILEONARDOMM46+SEA SUB00:53:2911:59:32.3000:14:2800:01:41
135264GIROLOALESSIOMM45MALASPINA NUOTO00:53:3011:59:33.1000:14:2900:01:41
13636CAMELILEONARDOMM45VIRTUS BUONCONVENTO00:53:3111:53:19.0000:14:3100:01:41
13767CERZAMARIA CLAUDIAFF35VIRTUS BUONCONVENTO00:53:3611:53:23.1500:14:3500:01:41
138333TOMELLERIMARCOMM3500:53:3711:59:40.3500:14:3600:01:41
13984MILANESIMARCOMM45BARZANO' ACQUACLUB00:53:3811:53:25.8500:14:3700:01:41
140385BONETTIMATTIAMJMTRIATHLON STRADIVARI CREMONA00:53:4111:59:44.1500:14:4000:01:41
141435GAZZIEROIVOMM45ACQUAREA00:53:4111:59:44.4500:14:4000:01:41
142378OTTOLINIFULVIOMM4500:53:4611:59:49.1500:14:4500:01:41
143145FAGHERAZZIALESSANDROMM35A300:53:5611:53:43.2500:14:5500:01:42
144413CIAMPOLILLOIVANMM4500:53:5812:00:01.1000:14:5700:01:42
14592PRETICHRISTIANMM45RN TORINO00:53:5911:53:46.1000:14:5800:01:42
146350GENNARIROBERTOMM46+00:54:0012:00:03.9500:15:0000:01:42
147317GADDAANDREAMM3500:54:0112:00:05.0500:15:0100:01:42
148258AMORELORENZOMM4500:54:0512:00:08.8000:15:0400:01:42
149266LOCATELLIVALENTINAFF3500:54:1712:00:20.3500:15:1600:01:42
150465SAVKOVICOGNJENMM3500:54:2012:00:23.5000:15:1900:01:42
151392CIMIOTTIMATTEOMM45CUS PADOVA A.S.D.00:54:2012:00:24.0500:15:2000:01:42
152471CERIBELLITANIAFF3500:54:2412:00:27.6000:15:2300:01:42
153192RONCALLICLAUDIO MASSIMOMM4500:54:2611:54:13.9500:15:2600:01:42
154140FAGNANICRISTINAFF35VIMERCATE NUOTO00:54:2711:54:14.1500:15:2600:01:42
155189BURASCHIFABIOMM45ACQUATIC CENTER00:54:2811:54:15.2000:15:2700:01:43
156178MARAMAIRICCARDOMM4500:54:3211:54:19.3000:15:3100:01:43
157151TERZILUDOVICOMM4500:54:3911:54:26.2500:15:3800:01:43
158374MALAGUTICRISTIANOMM46+FIRENZE NUOTA MASTER00:54:4012:00:43.4000:15:3900:01:43
159246PERSISIMONEMM45TEAM SPORT ISOLA00:54:4511:54:32.2500:15:4400:01:43
160463MIGLIORANZAANTONIOMM46+A.S.D.SERENISSIMA NUOTO CLUB00:54:5712:01:00.4000:15:5600:01:43
16199TRENTINERMESMM46+SWIMPRO LOMBARDIA00:55:0111:54:48.4000:16:0000:01:44
16239PIZZAMIGLIOANDREAMM45RASCHIANI00:55:2111:55:08.2500:16:2000:01:44
163205VIGANIGIOVANNIMM46+00:55:2611:55:13.7500:16:2500:01:44
16475MONTESANTIGIUSEPPEMM45FUTURA00:55:3711:55:24.3000:16:3600:01:45
16564SANDRINIVERONICAFF35DERTHONA NUOTO SOC.COOP.SPOR.DIL00:55:4211:55:29.2000:16:4100:01:45
166281FINCOANDREAMM35AQUAPOLIS00:55:4412:01:48.0000:16:4400:01:45
167102TONELLIANDREAMM4500:55:5711:55:44.1000:16:5600:01:45
168152CAIRATIANDREAMM4500:56:0111:55:48.6000:17:0000:01:45
169331MODENESEMATTEOMM45FREE TIME00:56:0112:02:04.8000:17:0000:01:45
170155FARUZZIDEBORAFF45BZNM ACQUE LIBERE00:56:0211:55:49.1000:17:0100:01:45
171148PAGANINIGIORGIOMJM00:56:0211:55:49.5000:17:0100:01:45
172441PASETTOANDREAMM35I DISERTORI00:56:0412:02:07.6000:17:0300:01:46
17363ROSSETTIGAIA AZZURRAFF3500:56:0611:55:53.2000:17:0500:01:46
1748LAMOTTKEPETERMM46+00:56:0711:55:54.2500:17:0600:01:46
175203NEGRETTOCLAUDIAFF3500:56:0711:55:54.3000:17:0600:01:46
176251BALDIGIORGIAFF35C.S.R. GRANDA00:56:1612:02:19.8500:17:1500:01:46
177443TUGNOLILUCAMM46+I DISERTORI00:56:1712:02:21.0000:17:1700:01:46
178433CARRARINIMAUROMM45I DISERTORI00:56:2312:02:26.5000:17:2200:01:46
179275RIVASTEFANO FILIPPOMM45A.S.D. HAPPY RUNNER CLUB (1826)00:56:2412:02:27.7500:17:2300:01:46
180101BACCAREDDA BOYCARLOMM46+CILO SRL SSD MILANO00:56:2711:56:14.7500:17:2600:01:46
18129COOKLESLEYFF46+00:56:3211:56:19.4000:17:3100:01:46
182340ZARDINISILVIAFF45CSS00:56:3412:02:37.9000:17:3400:01:46
183402FICICCHIAMAURIZIOMM35FUMANE TRIATHLON00:56:3512:02:38.7500:17:3400:01:46
184254DEGLIESPOSTIMATTIAMM46+ASD OASI BOSCHETTO00:56:3612:02:39.6500:17:3500:01:47
185314COSTAALESSANDROMM46+MILLENIUM BRESCIA00:56:3812:02:41.3000:17:3700:01:47
1867GIOMOGIAMPIETROMM45ASD ROVIGO NUOTO00:56:4011:56:27.6000:17:3900:01:47
187339MONTAGNOLIANNA PAOLAFF35NUOTO GIUNONE00:56:4312:02:46.1000:17:4200:01:47
188115MASPEROALESSANDOMM4500:56:4311:56:30.7000:17:4200:01:47
189247RIZZOTTIFRANCESCOMM35TEAM SPORT ISOLA00:56:4411:56:31.7000:17:4300:01:47
190459RUSSORITO DOMENICOMM46+00:56:4612:02:49.6500:17:4500:01:47
191225LUPERINICARLOMM46+SCV00:56:4811:56:35.4000:17:4700:01:47
192165BARILANIROLANDOMM46+00:56:5011:56:37.7500:17:4900:01:47
193226ANTONIETTILUCAMM46+00:56:5211:56:39.6000:17:5100:01:47
194426VILLAELISABETTAFF46+ASD TRIATHLON TEAM PORDENONE00:56:5412:02:57.2000:17:5300:01:47
195355ANDREELLANICOLAMM46+FLIPPER TRIATHLON00:56:5812:03:01.8500:17:5700:01:47
196369FRANCAVILLAGINEVRAFF45ASD PAVANELLO00:57:0412:03:08.0000:18:0400:01:47
197109ZAMBELLILAURAFJF00:57:1011:56:57.2500:18:0900:01:48
19832BONOPAOLOMM46+LIBERTAS MERATE00:57:1011:56:57.6000:18:0900:01:48
19979VERZENIMARIA LUISAFF46+ASD LIBERTAS MERATE DUE00:57:1011:56:57.9000:18:1000:01:48
200142VITALIMARCOMM4500:57:1211:56:59.2500:18:1100:01:48
201354ZORLONICHIARAFF46+00:57:2312:03:26.8000:18:2200:01:48
202243MONICACARRETTINFF46+ASI NOALE00:57:3211:57:19.5000:18:3100:01:48
203335CIPRANIFLAVIOMM46+00:57:4112:03:44.6000:18:4000:01:49
204446CHIARIMIRKOMM3500:57:4512:03:48.4500:18:4400:01:49
205311GUALAZZIGIORGIOMM4500:57:4912:03:52.5500:18:4800:01:49
206197NUGNESGILEMMAFF4500:57:5111:57:38.3000:18:5000:01:49
207316FERSINIGIANFRANCOMM46+CILO SRL SSD00:57:5612:03:59.6500:18:5500:01:49
208318GAIATIMASSIMOMM45S. S. DILETT. EFFETTO SPORT ARL00:58:0212:04:05.1000:19:0100:01:49
209323SGANZERLAMASSIMOMM46+00:58:1012:04:13.9000:19:1000:01:49
210231ADAMISTEFANOMM45TEAM SPORT ISOLA00:58:2111:58:08.6500:19:2000:01:50
211312VERGANIFABIOMM4500:58:2212:04:25.7000:19:2100:01:50
212344PIATTIGIANLUCAMM46+00:58:2312:04:26.7000:19:2200:01:50
213491UBERTOFRANCESCOMM4500:58:2512:04:28.4500:19:2400:01:50
214283BUSIITALOMM46+NUOTATORI DEL CARROCCIO LEGNANO00:58:3312:04:36.6000:19:3200:01:50
215302PERLOMICHELEMM4500:58:3512:04:38.9000:19:3500:01:50
216304STELLAFABIOLAFF3500:58:3512:04:39.0500:19:3500:01:50
217301PADERNOANDREAM00:58:3712:04:40.7500:19:3600:01:50
218431BRUSAROSCOFABIOMM45I DISERTORI00:58:4312:04:46.2500:19:4200:01:50
219294BORHYMAURIZIOMM46+FUMANE TRIATHLON00:58:4612:04:49.3000:19:4500:01:51
220380DELLA LUNAADRIANOMM4500:58:5312:04:56.4500:19:5200:01:51
22161FOGGIALBERTOMM4500:58:5411:58:41.3500:19:5300:01:51
22291WALTONANDYMM46+00:58:5411:58:42.0000:19:5400:01:51
223334CALZOLARICORRADOMM46+ASD OASI BOSCHETTO00:58:5812:05:01.1000:19:5700:01:51
224272NODARICOSMANMM4500:59:0012:05:03.3000:19:5900:01:51
225460SCARMAGNANIPAOLOMM46+MBTRIATHLON GARDA00:59:1612:05:20.0000:20:1600:01:52
226136PRINETTIGIULIAFF35CUS PRO PATRIA00:59:1811:59:05.9000:20:1800:01:52
227390VALESANIVALENTINAFF4500:59:2112:05:24.6500:20:2000:01:52
228134BOSCATTOGIORGIOMM4500:59:3211:59:19.6500:20:3100:01:52
229277SCARONIMORENOMM46+00:59:3712:05:40.3000:20:3600:01:52
23097DI BERARDINOANTONIOMM4500:59:4611:59:33.3500:20:4500:01:52
231194CASTRACANIGIOVANNIMM46+ACQUATIC CENTER MONTICHIARI00:59:4611:59:33.9000:20:4600:01:52
232319IANNUZZIAMEDEOMM46+NUOTATORI MILANESI ASD00:59:5212:05:55.3000:20:5100:01:53
233434FOLLIROBERTOMM46+00:59:5312:05:56.4000:20:5200:01:53
234201COLAFRANCESCOMM4500:59:5911:59:46.7000:20:5800:01:53
235199PIGNIROBERTOMM46+CANOTRIATHLON01:00:0211:59:49.9500:21:0200:01:53
23620DALLATOMMASINAUKARMM4501:00:0511:59:52.3500:21:0400:01:53
237146GIOVANARDINICOLÒMM3501:00:0711:59:54.5000:21:0600:01:53
238483TRIVELLALEONARDOMM46+DESENZANO TRIATHLON01:00:0912:06:12.1500:21:0800:01:53
239133ONGAROGIACOMOMM46+01:00:1312:00:00.9000:21:1300:01:53
240126LECCHIFRANCESCAFF4501:00:1412:00:01.4500:21:1300:01:53
241414FUMAGALLIDANIELEMM4501:00:1412:06:17.5000:21:1300:01:53
242216FELSTEADSONJA MARIEFF46+BOLZANO NUOTO01:00:1512:00:02.1000:21:1400:01:53
243398RAULENICOLAMM45SPARTANS BOLOGNA01:00:1812:06:21.4500:21:1700:01:53
24465BIANCHINIANDREAMM46+SSD EFFETTO SPORT01:00:2512:00:12.3000:21:2400:01:54
245383VITELLIANDREAMM3501:00:2812:06:31.7000:21:2700:01:54
24693DE MINARIANNAFJFA3 TRIATHLON01:00:3212:00:19.2500:21:3100:01:54
247455SOARDICRISTIANMM46+MILLENIUM BRESCIA01:00:3412:06:37.1500:21:3300:01:54
248479PENTOREENRICOMM46+TRIATHLON ALTO ADIGE01:00:3912:06:42.5500:21:3800:01:54
24986WELCHROBINMM46+01:00:4812:00:35.1000:21:4700:01:54
250410BRUNETTIMARCELLOMM3501:00:5612:06:59.9500:21:5600:01:55
251466VENEZIANIFABRIZIOMM46+CANOTRIATHLON01:00:5712:07:00.6500:21:5600:01:55
252458LOCATELLIMATTIAMM4501:00:5912:07:02.8500:21:5800:01:55
253218FINAZZIMICHAELMJM01:01:0012:00:47.3000:21:5900:01:55
254262CARLATABONEFF3501:01:0012:07:03.9500:22:0000:01:55
255395MASSENZA MILANIGIORGIO GIUSEPPEMM46+SPORT & FITNESS SRL S.S.D.01:01:0312:07:06.1000:22:0200:01:55
256343NEGRIDAMIANOMM46+01:01:0312:07:06.2000:22:0200:01:55
257176DERIUFRANCESCAFF45WOMAN TRIATHLON ITALIA01:01:0512:00:52.1000:22:0400:01:55
2585GALLIGIORGIOMM46+EUROPA SSD01:01:1112:00:58.5500:22:1000:01:55
259403GAZZOLILAURA LUCIANAFF46+01:01:1112:07:14.7000:22:1000:01:55
260118CIMAFONTEANTONIOMM46+01:01:1512:01:02.1000:22:1400:01:55
261123STOLFIMASSIMOMM35QSWIM SSD A.R.L01:01:1512:01:02.8000:22:1400:01:55
262234BLASISIMONEMM46+CUS PRO PATRIA MILANO01:01:1612:01:03.6000:22:1500:01:55
26358ZERBETTOGIANLUCAMM4501:01:1812:01:05.4500:22:1700:01:55
26419CAMERONLAURAFF4501:01:1912:01:06.2000:22:1800:01:55
265391CAVAGNAGIORGIOMM4501:01:2612:07:29.6000:22:2500:01:56
266439MASTROTTOFEDERICOMM35I DISERTORI01:01:2612:07:29.7500:22:2500:01:56
267473GOTTARDOMAURIZIOMM46+GAM TEAM01:01:2712:07:30.5500:22:2600:01:56
268270MOSCADANIELEMM45TRIATHLON TEAM BRIANZA01:01:2812:07:31.7500:22:2700:01:56
26935MORINICRISTIANOMM46+VIRTUS BUONCONVENTO01:01:3212:01:19.8500:22:3100:01:56
270175CALZONIMARCOMM3501:01:3212:01:20.0000:22:3200:01:56
271280VANTADORISERGIOMM4501:01:3312:07:36.1000:22:3200:01:56
27225DONINICRISTIANEFF46+01:01:3412:01:21.1000:22:3300:01:56
27366BUCALOSSIFEDERICOMM45VIRTUS BUONCONVENTO01:01:3712:01:24.5000:22:3600:01:56
274452MARINMATTEOMM45CONSELVENUOTO01:01:3812:07:41.5500:22:3700:01:56
275468ASCARILUCAMM45FIRENZE NUOTA ASD01:01:4212:07:45.3000:22:4100:01:56
276328BETTINIMARCOMM46+01:01:4812:07:51.8000:22:4700:01:56
277486ZANETTIMICHELEMM3501:01:5012:07:53.5500:22:4900:01:56
278418MORCIANOMAURIZIOMM3501:01:5712:08:00.2500:22:5600:01:57
27914SOWERBYCATHARINEFF46+01:01:5912:01:46.7000:22:5800:01:57
280143ISMAILANNAFF46+SEA SUB MODENA01:02:0812:01:55.9500:23:0800:01:57
281450GALASSIIVANOMM46+33 TRENTINI01:02:0912:08:12.1000:23:0800:01:57
282173FACCINIALICEFF4501:02:1112:01:58.8500:23:1000:01:57
283285SBICEGOAURORAFF3501:02:1712:08:20.9000:23:1700:01:57
284321PREVITALIORNELLAFF46+LIBERTAS MERATE DUE01:02:1912:08:22.1000:23:1800:01:57
285163AMORUSOARIANNAFF4501:02:1912:02:06.6000:23:1800:01:57
28662MARINOMASSIMOMM46+CUS PADOVA TRIATHLON01:02:2112:02:08.1500:23:2000:01:57
287438MASSARORENATOMM46+01:02:2612:08:29.9000:23:2600:01:57
288213TIRONIENRICOMM35A.S.D. PROGETTO VISTA TRIATHLON (1925)01:02:2712:02:15.0500:23:2700:01:57
289274PEAGIOVANNIMM3501:02:3212:08:35.2000:23:3100:01:58
290232BALDANSILVIOMM46+ASI NOALE01:02:4012:02:27.8500:23:3900:01:58
29134BRENTEGANIFRANCESCOMM3501:02:4112:02:28.1500:23:4000:01:58
292276SANNYCUCINOTTAMM4501:02:4112:08:44.4000:23:4000:01:58
293241LUPPISONIAFF46+01:02:4512:02:32.9500:23:4500:01:58
294188GUSTINETTISIMONEMM4501:02:4612:02:33.3500:23:4500:01:58
295405MORESCHIFABIOMM45CALYPSO TRIATHLON01:02:4612:08:49.8500:23:4500:01:58
29628RONCATOSARAFF4501:02:4712:02:34.2000:23:4600:01:58
29787EL GHALBZOURIIMADMM3501:02:5012:08:53.7500:23:4900:01:58
298127MAGATELLILUCAMM46+01:02:5112:02:38.9500:23:5100:01:58
299365FANCHINIELENAFF3501:02:5212:08:55.9000:23:5200:01:58
300286ARILLOTTAUMBERTOMM45SPORTING CLUB SONCINO01:02:5412:08:57.5500:23:5300:01:58
301362COGOFABIOMM4501:02:5812:09:01.1000:23:5700:01:58
302256NESPOLIEMANUELEMM46+DA PAURA01:03:0012:09:03.9000:24:0000:01:59
303394MAROCCOPAOLOMJM01:03:0212:09:05.9500:24:0200:01:59
304341BUFFOLIALESSANDROMM46+01:03:0712:09:10.6500:24:0600:01:59
305224COLOMBOGIULIAFF3501:03:1012:02:58.0500:24:1000:01:59
306305AYZENBERGEKATERINAFF45VIRTUS BONCONVENTO01:03:1512:09:18.3000:24:1400:01:59
30733PELLEGRINIGIULIA MARIA LETIZIAFF46+01:03:2012:03:07.6500:24:1900:01:59
30826MCMAHONKATEFF4501:03:2412:03:11.3000:24:2300:01:59
309113MELLAMARCOMM3501:03:3712:03:24.5000:24:3600:02:00
310430BOVAANTONIOMM4501:03:3812:09:41.2000:24:3700:02:00
311348NAVAALICEFJF01:03:4012:09:43.8500:24:3900:02:00
312147PAGANINIFELICEMM46+01:03:5012:03:37.4000:24:4900:02:00
313135PANINIELEONORAFF3501:04:1312:04:00.4000:25:1200:02:01
314336GIRELLIGIOVANNIMM46+01:04:1712:10:20.1000:25:1600:02:01
315437MAROBINMARCOMM45I DISERTORI01:04:2012:04:07.5000:25:1900:02:01
316444ZANOTTOSARAFF35AQUAPOLIS01:04:2412:10:27.6500:25:2300:02:01
31740ROSSIMASSIMOMM45FUTURA01:04:2412:04:11.9500:25:2400:02:01
318139ANGOTOLIVIERMM45TRI SCHIO01:04:2812:04:15.1500:25:2700:02:01
31994NAVAMARIELLAFF46+SWIMMER INSIDE01:04:3512:04:22.2500:25:3400:02:01
3202GORBATOVASERAFIMAFF4501:04:3712:04:24.4000:25:3600:02:02
321137RACCAMARCOMM4501:04:4112:04:28.6000:25:4000:02:02
322105VERGAROGIUSEPPEMM46+01:04:4512:04:32.7000:25:4400:02:02
323124CAVALLERINICOLAMM4501:04:5012:04:37.3500:25:4900:02:02
32431BIAGGIALESSANDROMM46+01:04:5712:04:44.7000:25:5600:02:02
325233BIOTTOROBERTAFF46+ASI NOALE01:05:0112:04:48.4000:26:0000:02:02
32644RICCARDIMONICA ALESSANDRAFF4501:05:1912:05:06.6500:26:1800:02:03
327150GARCIALAIAFF4501:05:2112:05:08.6500:26:2000:02:03
328179TORRICELLIGABRIELEMM3501:05:2412:05:11.5500:26:2300:02:03
329210FUMAGALLIROBERTAFF4501:05:3812:05:25.5000:26:3700:02:03
330356ARRIGONIELEONORAFF3501:05:4312:11:46.4500:26:4200:02:04
331415MANICARDILEONARDOMM46+FIRENZE NUOTA MASTER A.S. DILETT.01:05:5312:11:56.8500:26:5200:02:04
332400BAFFAALESSANDRAFJF01:05:5512:11:58.8000:26:5400:02:04
333263DANILODI GIACOMOMM4501:05:5812:12:01.3000:26:5700:02:04
334268MARMAGLIOG.PAOLOMM46+01:06:0612:12:09.4000:27:0500:02:04
335417MONTANARIGIULIANOMM46+GESTISPORT01:06:0912:12:12.2000:27:0800:02:04
336129COLOMBERASTEFANOMM46+01:06:1112:05:58.2000:27:1000:02:04
337424ROSSININADIAFF35GESTISPORT01:06:1112:12:14.2000:27:1000:02:04
33888FONTOLANGIANLUCAMM46+CONSELVENUOTO01:06:3012:06:17.3500:27:2900:02:05
3396GANDELLIMARCOMM46+01:06:3312:06:20.8500:27:3200:02:05
340303SEDAZZARISILVIAFF46+01:06:3312:12:37.0500:27:3300:02:05
341236DOTTIRAFFAELLAFF45CUS PRO PATRIA MILANO01:06:3512:06:22.5500:27:3400:02:05
342393FAVILLIGIACOMOMM3501:06:3512:12:38.7500:27:3400:02:05
343119MARTINELLIMARCELLOMM4501:06:3812:06:25.8000:27:3700:02:05
344167MASSAEFISIOMM4501:06:4212:06:29.4000:27:4100:02:05
345221CORTINOVISALBINOMM46+01:06:4612:06:33.5000:27:4500:02:06
346346FORLANIMATTEOMM4501:06:4712:06:34.1000:27:4600:02:06
347487STORACESTEFANIAFF46+01:06:4712:12:50.8000:27:4600:02:06
348174BARBIERIELISAFF4501:06:5912:06:47.0000:27:5900:02:06
349107MAINARDIATTILIAFF46+K3 TRIATHLON01:07:0012:06:47.2500:27:5900:02:06
350261BRESCIANIGIANLUCAMM46+01:07:1512:13:18.5500:28:1400:02:06
351432BURATOROBERTOMM46+CONSELVE NUOTO01:07:2512:13:28.9000:28:2500:02:07
35224VASKINYURIYMM3501:07:3012:07:17.7000:28:2900:02:07
353456CARLINOMARILENAFF46+AS DILET. NUOTO CLUB AZZURRA 9101:07:3912:13:42.3500:28:3800:02:07
354490SHAUNSHEFFIELDMM46+01:07:4012:13:44.0000:28:4000:02:07
355353TEALDICORRADOMM35GRANBIKE01:07:4712:13:50.1000:28:4600:02:07
356308FIGLIUZZIANTONIOMM35FREE TIME01:07:5112:13:54.7000:28:5000:02:08
357429BEVILACQUAFABIOMM46+I DISERTORI01:07:5312:13:56.3000:28:5200:02:08
35880VICTORPATRIZIAFF46+01:08:0912:07:56.7000:29:0800:02:08
359489PUCHKOVAMARGARITAFF3501:08:1212:14:15.1500:29:1100:02:08
36053DIANIWALTERMM46+SPORTING CLUB MILANO 2 ASD01:08:1612:08:03.6000:29:1500:02:08
361170TAVERNAGABRIELLAFF46+B FIT LEGNANO NUOTO01:08:1812:08:05.4000:29:1700:02:08
36227TANSIMARCOMM45VTT01:08:2212:08:09.3500:29:2100:02:09
36318BRUNOLUDOVICAFF46+01:08:2412:08:11.5000:29:2300:02:09
364117CERINIANNA MARIAFF46+01:08:3712:08:24.8500:29:3600:02:09
365122FRAUMASSIMOMM46+QSWIM SSD A.R.L01:08:4612:08:33.6500:29:4500:02:09
366384WICHERSMICHELMM46+01:08:5212:14:55.6000:29:5100:02:10
36742MAININIFABIO CARLOMM4501:08:5912:08:46.8500:29:5800:02:10
368130MARCANDELLITIZIANOMM46+01:09:0312:08:51.0000:30:0300:02:10
3694GALBIATIFRANCESCOMM4501:09:0712:08:54.7500:30:0600:02:10
370121CONTISSTEFANOMM45QSWIMM SSD A R.L.01:09:1212:08:59.2500:30:1100:02:10
371425TINTORIDANIELEMM45SPORT 6401:09:2712:15:30.7000:30:2600:02:11
372154FACCIOMARCOMM45TRISCHIO01:09:4012:09:27.7000:30:3900:02:11
373172TASSIMARCOMM46+01:10:1712:10:04.1500:31:1600:02:12
374141YEOHMEI FOONGFF3501:10:1912:10:06.2500:31:1800:02:12
375125JAVIDSAEIDMM46+MASTER PALAZZOLO01:10:2612:10:13.7000:31:2500:02:12
376131URGNANIBARBARAFF46+01:10:3012:10:17.8000:31:2900:02:13
37723MAGNANIGIUSEPPEMM46+ASD LIBERTAS MERATE DUE01:10:3112:10:18.8500:31:3000:02:13
378291TOLUEMANUELEMM45MODENA TRIATHLON01:11:1412:17:17.6000:32:1300:02:14
379100STEFANILEONARDO ANGELOMM46+01:11:2512:11:12.8000:32:2400:02:14
38052CHERUBINICLAUDIAFF45CUS FERRARA TRIATHLON01:11:3312:11:20.9500:32:3300:02:15
381440MONDINMARIANNAFF3501:11:5012:17:53.9000:32:5000:02:15
382289TORCHIANISIMONEMM45SONCINO SPORTING CLUB01:12:0212:18:05.1000:33:0100:02:15
383449DURANTIDAVIDEMM3501:12:0312:18:06.9000:33:0300:02:15
384386CORRAL RODRIGUEZRAQUELFF35TORINO TRIATHLON01:12:0812:18:11.7500:33:0700:02:16
385389PEREZ MARTINDANIELMM35TORINO TRIATHLON01:12:0912:18:12.5000:33:0800:02:16
38613GORKOVENKOANNAFF4501:12:3012:12:17.1500:33:2900:02:16
387212MORSIANIMARTAFF3501:12:3912:12:26.2000:33:3800:02:17
388240LA BARBERALIAFF4501:13:1012:12:57.6000:34:0900:02:18
38969DADUCCIANDREAMM4501:13:3212:13:19.7000:34:3100:02:18
390482SANTAGIULIANAFABIOMM3501:13:3312:19:36.8500:34:3200:02:18
39195NOOTENBOOMSHIRLEYFF4501:13:3712:13:24.9000:34:3700:02:18
392196LEONARDIPAOLAFF46+01:13:3912:13:26.2500:34:3800:02:18
393381TANCREDIRICHARD JAMESMM45RASCHIANI TRAITAHLON PAVESE01:13:4512:19:48.9500:34:4500:02:19
39459BERTOLILUCAMM4501:13:5412:13:41.4500:34:5300:02:19
395187CRESCIMBINIORLANDOMM46+01:14:2412:14:11.2000:35:2300:02:20
396453MUNARINKOCISMM45TREVISO TRIATHLON A.S.D. (1117)01:14:3712:20:40.8500:35:3600:02:20
39790RAFTERBETHANYFF4501:14:4512:14:32.5000:35:4400:02:21
39882ZANDAGIUSEPPEMM46+01:15:1512:15:02.1500:36:1400:02:21
399171VALSANIACHIARAFF3501:15:1912:15:06.5500:36:1800:02:22
40041DELL'UOMOFILIPPOMM46+SPORT MANAGEMENT01:15:2312:15:10.7000:36:2200:02:22
401149SONZOGNICARLOTTAFF3501:16:0412:15:51.3500:37:0300:02:23
402106GARINIMARIA ELENAFF46+ASD STRADIVARI NUOTO01:16:1112:15:58.2500:37:1000:02:23
403358BOCCHIMAURO GIORGIOMM46+01:16:2312:22:26.1500:37:2200:02:24
404269MESSIFLAVIANAFF4501:16:3412:22:37.3500:37:3300:02:24
405271MURDOLOEMANUELE LUIGIMM45TORINO TRIATHLON01:16:4612:22:49.7500:37:4500:02:24
406477MORELLIVALENTINAFF46+01:17:3812:23:41.6500:38:3700:02:26
407327VOLAFABIOMM46+ALBA TRIATHLON ASD01:17:4512:23:48.6000:38:4400:02:26
408202MANTOVIVALENTINAFF35CUS PRO PATRIA TRIATHLON01:17:4812:17:36.0000:38:4800:02:26
409186CINELLIVERONICAFF45DDS TRIATHLON01:18:0412:17:51.4000:39:0300:02:27
410360CARPIWALTERMM46+A.S.DILETT.TRICOLORE01:18:1512:24:18.1000:39:1400:02:27
411357BALDANDANIELEMM4501:18:2212:24:25.3000:39:2100:02:27
412387FRANZESEGIAMPIETROMM45FREE TIME A.S.D.01:18:4812:24:51.1500:39:4700:02:28
413412CAVALIEREANTONELLAFF46+01:18:5112:24:54.9000:39:5100:02:28
414195DEVECCHIROSSANAFF46+01:19:1612:19:03.8000:40:1500:02:29
415396PIVELLOELISAFF4501:19:2012:25:23.1500:40:1900:02:29
4161BYCHKOVANATALIAFF4501:19:2412:19:11.8000:40:2300:02:29
41768CHIUSOLIMARIA LETIZIAFF46+01:19:4212:19:29.3000:40:4100:02:30
418160SULTEEVAADELIAFF3501:19:5712:19:44.9000:40:5700:02:30
419215BOMBARDIERILUIGIMM46+01:20:2212:20:09.4500:41:2100:02:31
420351GRANDIDENISMM46+CUS FERRARA TRIATHLON01:21:5412:27:57.4000:42:5300:02:34
421309GHISLENIERNESTOMM46+01:22:1412:28:17.1500:43:1300:02:35
422292ABBA'ELISAFF45RASCHIANI TRIATHLON PAVESE01:22:3312:28:37.0000:43:3300:02:35
423278SOROKINMIKHAILMM3501:22:3512:28:38.3000:43:3400:02:35
42450VAULATOALBERTOMM46+01:23:3612:23:24.0000:44:3600:02:37
425296FUNAROCATERINAFF4501:24:2112:30:24.7000:45:2000:02:39
426267MARMAGLIOCHIARAFJF01:24:4412:30:47.9000:45:4400:02:39
427104PARRAVICINIMONICAFF45TRIATHLON NOVARA01:25:0912:24:56.9000:46:0900:02:40
428325VALSECCHIANDREAFF46+01:25:2212:31:25.9000:46:2200:02:40
429399RESHETNIAKLIZAFF3501:25:4112:31:45.0500:46:4100:02:41
430252BALO'FABIANA DANIELAFF46+ADS TEAM SPARTANS01:26:0212:32:05.6000:47:0100:02:42
431411BURLOTTIALBERTOMM3501:26:0812:32:11.5000:47:0700:02:42
432342GASPARELLAMICAELAFF46+01:26:1912:32:22.2500:47:1800:02:42
433265GUAINERIROBERTAFF46+01:26:2112:32:24.5000:47:2000:02:42
434324SORANNODAVIDEMM46+FREEZONE01:29:1412:35:18.0000:50:1400:02:48
435326VALSECCHILUISAFF46+01:29:5512:35:58.4500:50:5400:02:49
436257ALZANICRISTINAFF46+01:30:0212:36:05.7500:51:0100:02:49
437279TAMASANA LOREDANAFF35TORINO TRIATHLON01:30:4212:36:46.0000:51:4200:02:50
43812BROWSECLAIREFF46+01:30:5612:30:43.9000:51:5600:02:51
439337GROMOVAANNAFF3501:31:0512:37:08.3000:52:0400:02:51
44011BEATEVOGTFF46+01:31:0812:30:55.5000:52:0700:02:51
441164BALATTIENRICO MARIAMM4501:32:1012:31:57.8000:53:0900:02:53
442208BORGHETTIGIANLUCAMM3501:32:3012:32:17.7500:53:2900:02:54
443207ANTONELLILUCAMM3501:32:3112:32:18.7500:53:3000:02:54
444310GHITTIFEDERICOMM46+TP TEAM ACADEMY01:34:4312:40:46.9000:55:4300:02:58
445112LUPOSALVATOREMM46+01:36:4312:36:30.9500:57:4300:03:02
446237FARINACLAUDIOMM46+TRI RACE ROCK TEAM01:36:5812:36:45.5000:57:5700:03:02
447420PAURSERENELLAFF4501:42:5512:48:58.3001:03:5400:03:13
44856CALORILAURAFF46+01:43:2812:43:15.4001:04:2700:03:14
449128BONTEMPIANNA MARIAFF46+CUS PROPATRIA MILANO TRIATHLON01:53:2612:53:13.3501:14:2500:03:33
450306CASUAGNESEFF46+01:55:5613:01:59.5501:16:5500:03:38